DECAYED

CZ-6A DEB, 61484 (Decayed)

Orbit data source: Space-Track

CZ-6A DEB, 61484 was space debris in LEO originally from a launch on Tue, 06 Aug 2024 UTC launched from the Taiyaun Space Center, China (TSC). Debris objects in space refer to the collection of defunct objects orbiting the Earth. Examples of debris include non-operational satellites, rocket bodies, and fragments generated from explosions, collisions, or faulty payload assembly.

Not visible in the next 10 days
Identifier
61484, 2024-140AAS
Orbit
Decayed
Country
Flag of CNCN / PRC
Related business
Manufacturer
SAST
Mission
Decayed spacecraft
Bus & Motor
Unknown
Mass
Unknown
Launch date (UTC)
2024-08-06 (2 years ago)
Launch vehicle
Unknown
Launch site
Taiyaun Space Center, China (TSC)
Object type
Payload
Rocket body
Debris
Shape & HBR
Unknown shape, 0.1 m
Radar Cross Section
Medium (>0.1 m² and <1 m²)

Expand to show TLE details & history
Last TLE update: 1 year ago

TLE from 1 year ago
0 CZ-6A DEB
1 61484U 24140AAS 25077.69125506  .01422277  00000-0  65463-1 0  9999
2 61484  88.9858 324.3380 0016429  81.1159 279.1944 15.17283130 27827
Epoch: 2025-03-18T16:35Z
TLE epoch observation values (Epoch: 2025-03-18T16:35:24.437Z)
Latitude
-0.00001°
Longitude
-101.00392°
Altitude
515.455 km
Speed
7.607 km/s
True Right ascension
21h 37m 21s
True Declination
0° 00' 00"
Sunlit
Object was in daylight at epoch
Visualization orbit readout
Latitude
Unknown
Longitude
Unknown
Altitude
Unknown
Speed
Unknown
Apparent Right ascension
Unknown
Apparent Declination
Unknown
Sunlit
N/A
Visualization observer readout
Local Sidereal Time
07:21:25
Azimuth
Unknown
Elevation
Unknown
Doppler factor
Unknown
Orbital elements
Apogee altitude
522.187 km
Perigee altitude
499.551 km
Semi-major axis
6,889.006 km
Eccentricity
0.00164
Inclination
88.9858°
RAAN
324.338°
Arg. of periapsis
81.1159°
True anomaly
279.0085°
Mean anomaly
279.1944°
Eccentric anomaly
279.10145°
Mean motion
3.79584 °/min
Orbital period
94.84 mins
BSTAR
0.065463
Loading maneuver chart data...
Computing Atmospheric mass density...
Loading historical data...
Loading historical data...
Loading historical data...
Loading historical data...
Loading historical data...
Loading historical data...
Loading historical data...

Documentation

Showing up to 5 results
|